Time,TemperatureF,DewpointF,PressureIn,WindDirection,WindDirectionDegrees,WindSpeedMPH,WindSpeedGustMPH,Humidity,HourlyPrecipIn,Conditions,Clouds,dailyrainin,SolarRadiationWatts/m^2,SoftwareType,DateUTC
2013-03-15 00:02:00,43.0,43.0,-100.00,NW,326,7.0,15.0,100,0.00,,,0.00,0.000000,,2013-03-15 07:02:00,
2013-03-15 00:12:00,43.0,43.0,-100.00,NW,326,7.0,15.0,100,0.00,,,0.00,0.000000,,2013-03-15 07:12:00,
2013-03-15 00:32:00,43.0,43.0,-100.00,NW,312,6.0,20.0,100,0.00,,,0.00,0.000000,,2013-03-15 07:32:00,
2013-03-15 00:42:00,43.0,43.0,-100.00,NW,312,6.0,20.0,100,0.00,,,0.00,0.000000,,2013-03-15 07:42:00,
2013-03-15 00:52:00,43.0,43.0,-100.00,NW,312,6.0,20.0,100,0.00,,,0.00,0.000000,,2013-03-15 07:52:00,
2013-03-15 01:02:00,43.0,43.0,-100.00,NW,312,6.0,20.0,100,0.00,,,0.00,0.000000,,2013-03-15 08:02:00,
2013-03-15 01:12:00,43.0,43.0,-100.00,NW,312,6.0,20.0,100,0.00,,,0.00,0.000000,,2013-03-15 08:12:00,
2013-03-15 01:33:00,44.0,44.0,-100.00,WNW,300,7.0,16.0,100,0.00,,,0.00,0.000000,,2013-03-15 08:33:00,
2013-03-15 01:42:00,44.0,44.0,-100.00,WNW,300,7.0,16.0,100,0.00,,,0.00,0.000000,,2013-03-15 08:42:00,
2013-03-15 01:52:00,44.0,44.0,-100.00,WNW,300,7.0,16.0,100,0.00,,,0.00,0.000000,,2013-03-15 08:52:00,
2013-03-15 02:02:00,44.0,44.0,-100.00,WNW,300,7.0,16.0,100,0.00,,,0.00,0.000000,,2013-03-15 09:02:00,
2013-03-15 02:11:00,44.0,44.0,-100.00,WNW,300,7.0,16.0,100,0.00,,,0.00,0.000000,,2013-03-15 09:11:00,
2013-03-15 02:33:00,43.0,43.0,-100.00,NW,312,6.0,14.0,100,0.00,,,0.00,0.000000,,2013-03-15 09:33:00,
2013-03-15 02:43:00,43.0,43.0,-100.00,NW,312,6.0,14.0,100,0.00,,,0.00,0.000000,,2013-03-15 09:43:00,
2013-03-15 02:53:00,43.0,43.0,-100.00,NW,312,6.0,14.0,100,0.00,,,0.00,0.000000,,2013-03-15 09:53:00,
2013-03-15 03:02:00,43.0,43.0,-100.00,NW,312,6.0,14.0,100,0.00,,,0.00,0.000000,,2013-03-15 10:02:00,
2013-03-15 03:12:00,43.0,43.0,-100.00,NW,312,6.0,14.0,100,0.00,,,0.00,0.000000,,2013-03-15 10:12:00,
2013-03-15 03:33:00,43.0,43.0,-100.00,NW,304,7.0,19.0,100,0.00,,,0.00,0.000000,,2013-03-15 10:33:00,
2013-03-15 03:43:00,43.0,43.0,-100.00,NW,304,7.0,19.0,100,0.00,,,0.00,0.000000,,2013-03-15 10:43:00,
2013-03-15 03:52:00,43.0,43.0,-100.00,NW,304,7.0,19.0,100,0.00,,,0.00,0.000000,,2013-03-15 10:52:00,
2013-03-15 04:02:00,43.0,43.0,-100.00,NW,304,7.0,19.0,100,0.00,,,0.00,0.000000,,2013-03-15 11:02:00,
2013-03-15 04:11:00,43.0,43.0,-100.00,NW,304,7.0,19.0,100,0.00,,,0.00,0.000000,,2013-03-15 11:11:00,
2013-03-15 04:32:00,42.0,42.0,-100.00,NW,317,4.0,15.0,100,0.00,,,0.00,0.000000,,2013-03-15 11:32:00,
2013-03-15 04:42:00,42.0,42.0,-100.00,NW,317,4.0,15.0,100,0.00,,,0.00,0.000000,,2013-03-15 11:42:00,
2013-03-15 04:52:00,42.0,42.0,-100.00,NW,317,4.0,15.0,100,0.00,,,0.00,0.000000,,2013-03-15 11:52:00,
2013-03-15 05:02:00,42.0,42.0,-100.00,NW,317,4.0,15.0,100,0.00,,,0.00,0.000000,,2013-03-15 12:02:00,
2013-03-15 05:12:00,42.0,42.0,-100.00,NW,317,4.0,15.0,100,0.00,,,0.00,0.000000,,2013-03-15 12:12:00,
2013-03-15 05:32:00,42.0,42.0,-100.00,NW,315,4.0,11.0,100,0.00,,,0.00,0.000000,,2013-03-15 12:32:00,
2013-03-15 05:42:00,42.0,42.0,-100.00,NW,315,4.0,11.0,100,0.00,,,0.00,0.000000,,2013-03-15 12:42:00,
2013-03-15 05:52:00,42.0,42.0,-100.00,NW,315,4.0,11.0,100,0.00,,,0.00,0.000000,,2013-03-15 12:52:00,
2013-03-15 06:02:00,42.0,42.0,-100.00,NW,315,4.0,11.0,100,0.00,,,0.00,0.000000,,2013-03-15 13:02:00,
2013-03-15 06:12:00,42.0,42.0,-100.00,NW,315,4.0,11.0,100,0.00,,,0.00,0.000000,,2013-03-15 13:12:00,
2013-03-15 06:42:00,42.0,42.0,-100.00,NW,321,4.0,9.0,100,0.00,,,0.00,0.000000,,2013-03-15 13:42:00,
2013-03-15 06:52:00,42.0,42.0,-100.00,NW,321,4.0,9.0,100,0.00,,,0.00,0.000000,,2013-03-15 13:52:00,
2013-03-15 07:02:00,42.0,42.0,-100.00,NW,321,4.0,9.0,100,0.00,,,0.00,0.000000,,2013-03-15 14:02:00,
2013-03-15 07:11:00,42.0,42.0,-100.00,NW,321,4.0,9.0,100,0.00,,,0.00,0.000000,,2013-03-15 14:11:00,
2013-03-15 07:33:00,43.0,43.0,-100.00,NW,319,4.0,8.0,100,0.00,,,0.00,1.000000,,2013-03-15 14:33:00,
2013-03-15 07:42:00,43.0,43.0,-100.00,NW,319,4.0,8.0,100,0.00,,,0.00,1.000000,,2013-03-15 14:42:00,
2013-03-15 07:53:00,43.0,43.0,-100.00,NW,319,4.0,8.0,100,0.00,,,0.00,1.000000,,2013-03-15 14:53:00,
2013-03-15 08:02:00,43.0,43.0,-100.00,NW,319,4.0,8.0,100,0.00,,,0.00,1.000000,,2013-03-15 15:02:00,
2013-03-15 08:12:00,43.0,43.0,-100.00,NW,319,4.0,8.0,100,0.00,,,0.00,1.000000,,2013-03-15 15:12:00,
2013-03-15 08:33:00,43.0,43.0,-100.00,NNW,332,5.0,9.0,100,0.00,,,0.00,16.000000,,2013-03-15 15:33:00,
2013-03-15 08:43:00,43.0,43.0,-100.00,NNW,332,5.0,9.0,100,0.00,,,0.00,16.000000,,2013-03-15 15:43:00,
2013-03-15 08:53:00,43.0,43.0,-100.00,NNW,332,5.0,9.0,100,0.00,,,0.00,16.000000,,2013-03-15 15:53:00,
2013-03-15 09:02:00,43.0,43.0,-100.00,NNW,332,5.0,9.0,100,0.00,,,0.00,16.000000,,2013-03-15 16:02:00,
2013-03-15 09:12:00,43.0,43.0,-100.00,NNW,332,5.0,9.0,100,0.00,,,0.00,16.000000,,2013-03-15 16:12:00,
2013-03-15 09:32:00,44.0,44.0,-100.00,NNW,332,3.0,11.0,100,0.00,,,0.00,64.000000,,2013-03-15 16:32:00,
2013-03-15 09:42:00,44.0,44.0,-100.00,NNW,332,3.0,11.0,100,0.00,,,0.00,64.000000,,2013-03-15 16:42:00,
2013-03-15 09:52:00,44.0,44.0,-100.00,NNW,332,3.0,11.0,100,0.00,,,0.00,64.000000,,2013-03-15 16:52:00,
2013-03-15 10:02:00,44.0,44.0,-100.00,NNW,332,3.0,11.0,100,0.00,,,0.00,64.000000,,2013-03-15 17:02:00,
2013-03-15 10:12:00,44.0,44.0,-100.00,NNW,332,3.0,11.0,100,0.00,,,0.00,64.000000,,2013-03-15 17:12:00,
2013-03-15 10:32:00,44.0,44.0,-100.00,North,353,4.0,8.0,100,0.00,,,0.00,99.000000,,2013-03-15 17:32:00,
2013-03-15 10:43:00,44.0,44.0,-100.00,North,353,4.0,8.0,100,0.00,,,0.00,99.000000,,2013-03-15 17:43:00,
2013-03-15 10:53:00,44.0,44.0,-100.00,North,353,4.0,8.0,100,0.00,,,0.00,99.000000,,2013-03-15 17:53:00,
2013-03-15 11:02:00,44.0,44.0,-100.00,North,353,4.0,8.0,100,0.00,,,0.00,99.000000,,2013-03-15 18:02:00,
2013-03-15 11:11:00,44.0,44.0,-100.00,North,353,4.0,8.0,100,0.00,,,0.00,99.000000,,2013-03-15 18:11:00,
2013-03-15 11:42:00,46.0,46.0,-100.00,NNW,328,5.0,9.0,100,0.00,,,0.00,181.000000,,2013-03-15 18:42:00,
2013-03-15 11:52:00,46.0,46.0,-100.00,NNW,328,5.0,9.0,100,0.00,,,0.00,181.000000,,2013-03-15 18:52:00,
2013-03-15 12:02:00,46.0,46.0,-100.00,NNW,328,5.0,9.0,100,0.00,,,0.00,181.000000,,2013-03-15 19:02:00,
2013-03-15 12:12:00,46.0,46.0,-100.00,NNW,328,5.0,9.0,100,0.00,,,0.00,181.000000,,2013-03-15 19:12:00,
2013-03-15 12:42:00,51.0,49.0,-100.00,NNW,335,6.0,11.0,92,0.00,,,-99.99,404.000000,,2013-03-15 19:42:00,
2013-03-15 12:52:00,51.0,49.0,-100.00,NNW,335,6.0,11.0,92,0.00,,,-99.99,404.000000,,2013-03-15 19:52:00,
2013-03-15 13:02:00,51.0,49.0,-100.00,NNW,335,6.0,11.0,92,0.00,,,-99.99,404.000000,,2013-03-15 20:02:00,
2013-03-15 13:12:00,51.0,49.0,-100.00,NNW,335,6.0,11.0,92,0.00,,,-99.99,404.000000,,2013-03-15 20:12:00,
2013-03-15 13:42:00,52.0,48.0,-100.00,NW,326,6.0,14.0,85,0.00,,,0.00,452.000000,,2013-03-15 20:42:00,
2013-03-15 13:52:00,52.0,48.0,-100.00,NW,326,6.0,14.0,85,0.00,,,0.00,452.000000,,2013-03-15 20:52:00,
2013-03-15 14:02:00,52.0,48.0,-100.00,NW,326,6.0,14.0,85,0.00,,,0.00,452.000000,,2013-03-15 21:02:00,
2013-03-15 14:11:00,52.0,48.0,-100.00,NW,326,6.0,14.0,85,0.00,,,0.00,452.000000,,2013-03-15 21:11:00,
2013-03-15 14:43:00,56.0,47.0,-100.00,NW,325,6.0,13.0,71,0.00,,,0.00,559.000000,,2013-03-15 21:43:00,
2013-03-15 14:52:00,56.0,47.0,-100.00,NW,325,6.0,13.0,71,0.00,,,0.00,559.000000,,2013-03-15 21:52:00,
2013-03-15 15:03:00,56.0,47.0,-100.00,NW,325,6.0,13.0,71,0.00,,,0.00,559.000000,,2013-03-15 22:03:00,
2013-03-15 15:12:00,56.0,47.0,-100.00,NW,325,6.0,13.0,71,0.00,,,0.00,559.000000,,2013-03-15 22:12:00,
2013-03-15 15:33:00,54.0,44.0,-100.00,NW,318,6.0,14.0,70,0.00,,,0.00,445.000000,,2013-03-15 22:33:00,
2013-03-15 15:42:00,54.0,44.0,-100.00,NW,318,6.0,14.0,70,0.00,,,0.00,445.000000,,2013-03-15 22:42:00,
2013-03-15 15:52:00,54.0,44.0,-100.00,NW,318,6.0,14.0,70,0.00,,,0.00,445.000000,,2013-03-15 22:52:00,
2013-03-15 16:02:00,54.0,44.0,-100.00,NW,318,6.0,14.0,70,0.00,,,0.00,445.000000,,2013-03-15 23:02:00,
2013-03-15 16:12:00,54.0,44.0,-100.00,NW,318,6.0,14.0,70,0.00,,,0.00,445.000000,,2013-03-15 23:12:00,
2013-03-15 16:42:00,53.0,44.0,-100.00,NW,315,7.0,15.0,71,0.00,,,0.00,290.000000,,2013-03-15 23:42:00,
2013-03-15 16:53:00,53.0,44.0,-100.00,NW,315,7.0,15.0,71,0.00,,,0.00,290.000000,,2013-03-15 23:53:00,
2013-03-15 17:02:00,53.0,44.0,-100.00,NW,315,7.0,15.0,71,0.00,,,0.00,290.000000,,2013-03-16 00:02:00,
2013-03-15 17:12:00,53.0,44.0,-100.00,NW,315,7.0,15.0,71,0.00,,,0.00,290.000000,,2013-03-16 00:12:00,
2013-03-15 18:32:00,50.0,44.0,-100.00,NW,324,5.0,15.0,80,-99.99,,,0.00,114.000000,,2013-03-16 01:32:00,
2013-03-15 18:42:00,50.0,44.0,-100.00,NW,324,5.0,15.0,80,-99.99,,,0.00,114.000000,,2013-03-16 01:42:00,
2013-03-15 18:52:00,50.0,44.0,-100.00,NW,324,5.0,15.0,80,-99.99,,,0.00,114.000000,,2013-03-16 01:52:00,
2013-03-15 19:02:00,50.0,44.0,-100.00,NW,324,5.0,15.0,80,-99.99,,,0.00,114.000000,,2013-03-16 02:02:00,
2013-03-15 19:12:00,50.0,44.0,-100.00,NW,324,5.0,15.0,80,-99.99,,,0.00,114.000000,,2013-03-16 02:12:00,
2013-03-15 19:43:00,48.0,42.0,-100.00,NW,308,5.0,12.0,81,0.00,,,0.00,39.000000,,2013-03-16 02:43:00,
2013-03-15 19:52:00,48.0,42.0,-100.00,NW,308,5.0,12.0,81,0.00,,,0.00,39.000000,,2013-03-16 02:52:00,
2013-03-15 20:02:00,48.0,42.0,-100.00,NW,308,5.0,12.0,81,0.00,,,0.00,39.000000,,2013-03-16 03:02:00,
2013-03-15 20:11:00,48.0,42.0,-100.00,NW,308,5.0,12.0,81,0.00,,,0.00,39.000000,,2013-03-16 03:11:00,
2013-03-15 20:43:00,47.0,42.0,-100.00,NW,310,5.0,14.0,84,0.00,,,0.00,1.000000,,2013-03-16 03:43:00,
2013-03-15 20:53:00,47.0,42.0,-100.00,NW,310,5.0,14.0,84,0.00,,,0.00,1.000000,,2013-03-16 03:53:00,
2013-03-15 21:02:00,47.0,42.0,-100.00,NW,310,5.0,14.0,84,0.00,,,0.00,1.000000,,2013-03-16 04:02:00,
2013-03-15 21:12:00,47.0,42.0,-100.00,NW,310,5.0,14.0,84,0.00,,,0.00,1.000000,,2013-03-16 04:12:00,
2013-03-15 21:33:00,45.0,41.0,-100.00,NW,309,4.0,11.0,85,0.00,,,0.00,0.000000,,2013-03-16 04:33:00,
2013-03-15 21:43:00,45.0,41.0,-100.00,NW,309,4.0,11.0,85,0.00,,,0.00,0.000000,,2013-03-16 04:43:00,
2013-03-15 21:53:00,45.0,41.0,-100.00,NW,309,4.0,11.0,85,0.00,,,0.00,0.000000,,2013-03-16 04:53:00,
2013-03-15 22:02:00,45.0,41.0,-100.00,NW,309,4.0,11.0,85,0.00,,,0.00,0.000000,,2013-03-16 05:02:00,
2013-03-15 22:12:00,45.0,41.0,-100.00,NW,309,4.0,11.0,85,0.00,,,0.00,0.000000,,2013-03-16 05:12:00,
2013-03-15 22:32:00,46.0,41.0,-100.00,WNW,283,8.0,15.0,83,0.00,,,0.00,0.000000,,2013-03-16 05:32:00,
2013-03-15 22:42:00,46.0,41.0,-100.00,WNW,283,8.0,15.0,83,0.00,,,0.00,0.000000,,2013-03-16 05:42:00,
2013-03-15 22:53:00,46.0,41.0,-100.00,WNW,283,8.0,15.0,83,0.00,,,0.00,0.000000,,2013-03-16 05:53:00,
2013-03-15 23:02:00,46.0,41.0,-100.00,WNW,283,8.0,15.0,83,0.00,,,0.00,0.000000,,2013-03-16 06:02:00,
2013-03-15 23:12:00,46.0,41.0,-100.00,WNW,283,8.0,15.0,83,0.00,,,0.00,0.000000,,2013-03-16 06:12:00,
2013-03-15 23:32:00,46.0,41.0,-100.00,WNW,292,9.0,18.0,83,0.00,,,0.00,0.000000,,2013-03-16 06:32:00,
2013-03-15 23:42:00,46.0,41.0,-100.00,WNW,292,9.0,18.0,83,0.00,,,0.00,0.000000,,2013-03-16 06:42:00,
2013-03-15 23:52:00,46.0,41.0,-100.00,WNW,292,9.0,18.0,83,0.00,,,0.00,0.000000,,2013-03-16 06:52:00,